Wind_Speed
6 6 6 6 8 9 12 16 19 20 21 20 19 18 19 19 19 19 20 20 20 20 19 18 18 18 18 18 19 19 17 16 15 14 14 14 13 13 14 14 14 13 13 12 12 12 12 12 12 12 12 12 13 15 17 17 17 17 17 18 17 16 15 14 13 12 11 11 12 13 13 14 14 14 14 14 15 14 14 13 13 12 11 10 9
6 5 4 5 6 8 10 14 18 20 21 21 20 19 20 20 20 20 20 21 21 21 21 20 20 20 20 20 21 20 19 17 16 14 14 13 13 13 13 14 13 13 13 12 11 11 10 10 10 10 11 11 13 15 17 18 18 18 18 18 18 17 16 16 14 13 13 12 12 12 12 13 14 14 15 15 15 14 13 13 12 11 10 9 8
8 6 5 4 5 7 9 12 16 19 21 22 22 21 20 21 21 20 20 21 22 22 22 22 21 20 19 19 20 19 18 17 15 14 13 12 13 13 13 13 13 13 13 12 11 10 9 8 8 9 10 11 12 13 16 17 18 18 18 17 17 17 17 16 15 15 14 13 13 12 11 11 13 13 13 13 13 13 12 11 10 9 9 8 8
10 7 5 4 5 7 8 12 16 18 19 21 22 21 20 20 21 21 21 22 23 23 23 22 20 18 17 16 16 15 14 14 14 13 12 11 12 12 13 14 13 13 13 12 11 10 8 7 7 9 10 10 11 12 14 16 17 18 17 17 16 16 16 16 16 15 15 14 13 13 12 11 11 12 11 11 11 10 10 8 8 8 8 8 8
11 9 7 6 6 6 8 11 15 17 18 20 21 21 20 21 22 23 23 23 24 24 23 21 18 16 15 14 13 12 12 12 13 13 12 12 12 12 13 14 14 14 13 13 12 10 9 8 8 9 10 10 10 11 12 14 15 16 17 16 15 15 15 15 15 15 15 15 14 13 12 11 11 11 11 10 9 8 7 7 8 8 8 8 8
12 11 9 8 7 7 8 10 12 14 16 19 22 23 23 22 23 24 24 24 25 25 23 20 18 16 16 15 14 14 15 15 16 15 14 13 13 13 13 14 14 14 13 12 12 10 9 8 8 9 10 10 10 11 11 12 13 14 15 15 14 14 13 13 14 14 14 14 14 13 13 12 11 11 11 10 9 8 8 8 9 9 9 9 9
13 12 10 8 8 9 10 10 12 15 17 20 23 24 24 23 23 24 25 25 24 24 23 20 18 16 17 18 18 19 20 20 20 18 15 13 12 12 12 13 13 13 13 12 11 10 9 8 7 8 9 9 9 10 10 11 11 12 13 13 13 13 12 12 12 12 13 14 13 13 13 12 11 11 11 10 10 10 10 9 9 9 9 9 8
15 13 11 9 8 9 10 11 13 16 18 20 22 24 24 23 22 24 25 26 25 24 23 21 19 18 19 20 20 20 20 20 18 16 15 13 13 12 11 11 12 12 12 11 11 10 9 7 7 7 7 7 8 9 9 10 10 11 11 11 11 11 11 11 11 10 11 12 13 12 11 11 11 10 10 10 10 10 9 9 9 8 8 8 7
16 15 14 12 10 10 10 12 14 15 16 19 22 24 24 24 24 24 25 25 25 24 23 22 21 21 21 22 21 20 18 15 13 13 13 13 13 12 11 10 10 11 11 11 10 9 9 8 7 6 6 6 7 8 8 9 10 10 10 10 10 10 10 10 9 9 9 10 11 11 11 10 10 9 9 9 8 8 7 7 7 7 6 6 6
19 18 17 15 13 13 12 12 13 13 15 19 22 24 24 24 24 24 24 24 24 24 23 23 23 22 22 22 21 18 15 13 13 12 12 12 12 12 11 10 10 10 11 11 10 10 9 8 7 6 5 5 5 6 7 8 9 9 9 9 9 9 9 9 8 8 8 8 9 10 10 9 9 8 8 8 7 6 6 6 6 6 6 6 5
20 19 18 18 17 15 13 11 12 14 16 18 20 22 23 23 22 23 24 24 24 24 24 24 23 23 22 21 20 16 14 14 14 14 13 12 13 12 11 11 10 11 11 11 11 10 9 8 7 7 6 6 6 6 7 7 8 8 8 9 9 8 8 8 7 7 6 6 7 7 8 8 8 7 7 6 6 6 6 6 6 6 7 6 6
22 21 21 20 19 15 11 10 12 15 17 18 19 20 22 22 22 23 24 25 25 24 24 24 24 23 22 20 17 15 15 16 16 16 15 14 15 14 12 11 11 11 12 12 12 11 10 9 8 8 8 8 8 8 8 9 9 8 8 8 8 8 7 7 7 6 6 5 5 6 6 7 7 7 7 6 5 6 6 6 6 6 6 6 5
24 24 23 22 19 15 12 11 12 14 16 18 20 21 21 22 22 22 22 24 25 25 25 24 24 23 22 19 16 15 16 18 18 17 16 15 15 15 15 14 13 13 13 13 13 12 11 11 10 10 10 11 11 11 11 11 11 10 10 9 9 9 8 7 6 6 5 4 4 4 4 5 5 6 7 7 6 6 7 6 6 5 4 4 4
25 26 25 22 20 18 15 12 12 14 16 18 20 21 21 22 23 22 21 23 25 26 26 25 25 24 22 19 17 16 17 19 18 18 16 15 14 15 16 16 15 13 13 13 13 12 12 12 12 11 11 11 11 11 11 11 11 11 12 12 11 11 10 10 9 8 7 5 4 4 3 3 4 5 7 8 7 6 6 6 5 4 3 3 3
26 27 26 23 22 20 17 15 13 14 15 17 18 20 21 22 23 22 21 22 24 26 27 27 26 26 24 21 18 18 18 19 19 18 17 15 14 15 15 15 14 13 13 13 13 13 13 12 12 11 10 9 8 8 7 7 8 8 9 10 11 11 11 11 11 10 9 8 7 5 4 3 2 3 5 7 7 6 5 5 5 5 4 3 4
27 28 26 24 24 23 21 18 15 14 15 16 17 19 20 21 23 23 22 22 24 27 27 28 28 27 25 22 20 19 19 18 18 17 17 16 16 15 15 15 14 13 13 14 14 13 13 12 11 10 8 7 5 4 3 3 3 3 3 4 5 6 7 8 8 8 8 8 8 7 6 4 3 2 3 4 6 6 5 4 4 4 3 3 4
28 28 25 24 26 25 23 19 16 14 14 15 18 19 21 22 24 24 23 23 25 28 29 30 30 28 26 24 22 21 20 19 18 18 18 18 18 17 16 15 14 13 14 15 14 14 13 12 10 9 8 6 5 3 2 2 1 1 1 1 1 1 2 3 4 4 5 5 5 6 6 5 4 2 2 2 4 5 5 5 3 2 2 3 4
29 28 26 25 27 27 24 21 17 15 14 15 18 20 22 23 24 25 24 23 25 28 30 31 31 30 28 26 24 23 22 21 20 20 20 20 20 19 16 15 15 15 15 15 15 14 13 11 10 9 8 6 5 4 4 4 4 3 3 3 3 3 2 2 1 2 2 3 3 3 4 5 4 2 1 2 3 3 3 4 3 1 1 3 4
32 31 28 27 29 29 26 22 19 16 15 17 19 22 23 23 24 26 26 26 27 30 33 33 32 31 30 28 27 26 25 23 22 21 21 21 21 20 18 17 17 17 16 16 15 14 13 11 10 9 8 7 6 5 5 5 5 5 5 4 4 4 4 4 3 3 3 3 3 2 3 4 4 2 1 2 3 3 3 3 2 1 0 2 3
33 31 29 29 30 29 27 24 21 18 16 17 20 22 23 23 24 25 26 27 28 30 33 34 33 33 32 30 29 28 27 25 24 23 22 23 23 22 19 19 18 18 17 16 15 14 13 12 11 10 9 8 7 7 6 6 6 6 5 5 5 5 5 5 4 4 4 4 4 3 3 4 3 2 1 2 3 4 3 3 2 1 1 2 3
31 30 31 31 31 30 28 25 22 20 20 20 22 23 23 24 24 25 26 27 27 28 30 32 33 33 32 31 30 29 28 26 25 24 24 25 25 23 21 20 20 19 18 16 15 15 14 13 12 11 10 9 9 8 8 7 7 7 7 6 6 6 6 5 5 5 5 4 4 4 4 4 4 2 1 3 4 4 4 3 2 1 1 2 2
31 31 32 33 33 31 29 27 26 24 22 22 22 23 24 24 24 25 26 26 27 27 28 30 31 32 32 32 32 31 29 27 26 25 25 25 25 24 23 22 21 20 19 18 16 16 15 14 13 12 12 11 10 10 9 9 9 9 8 8 7 7 7 7 7 6 6 5 5 4 4 4 3 2 1 2 4 5 4 4 3 1 0 1 1
30 30 31 33 34 33 32 30 28 25 23 22 22 23 23 24 25 25 25 26 27 27 28 29 30 31 32 33 33 32 30 28 26 26 26 26 26 25 24 22 22 22 20 19 18 17 16 15 14 13 13 12 12 11 11 11 10 10 10 10 10 9 9 8 8 7 6 6 5 4 4 4 3 2 2 3 5 5 5 4 3 2 1 0 1
27 28 28 30 33 35 35 33 31 28 26 24 23 23 23 24 25 25 25 26 27 28 29 29 29 31 33 33 33 32 30 28 27 27 27 27 27 26 25 24 24 23 21 20 19 18 16 15 15 15 14 14 14 13 13 13 12 12 12 12 11 11 11 10 10 9 8 7 6 5 4 4 4 4 4 5 6 5 5 4 2 1 0 0 1
27 27 28 30 32 34 34 34 33 31 28 26 24 23 23 24 25 25 26 28 29 29 29 29 29 31 32 32 32 31 30 29 28 28 28 29 28 27 25 25 25 24 22 21 20 19 17 16 16 16 16 15 15 14 14 14 14 14 14 13 13 13 13 12 11 10 9 8 6 6 6 6 6 5 5 6 6 6 5 4 3 2 1 1 2
31 29 28 30 31 32 31 30 31 31 29 27 25 23 23 24 25 26 28 30 31 30 30 29 29 29 30 30 30 30 29 29 29 30 31 31 30 28 27 26 26 25 24 23 21 20 18 18 18 18 17 16 15 15 14 14 15 15 15 15 15 15 14 14 13 11 9 9 8 7 8 8 7 7 6 6 6 6 5 4 4 3 2 2 3
34 32 31 31 32 33 31 29 30 31 30 28 26 24 24 24 25 27 29 31 32 32 31 30 29 28 29 29 28 29 29 30 31 32 32 32 31 29 28 28 27 26 25 24 23 22 20 20 20 18 17 16 15 15 15 15 15 15 16 16 16 16 15 15 13 12 11 10 9 9 9 9 8 7 5 5 5 4 3 2 2 2 3 4 5
38 36 34 33 35 35 34 32 32 32 30 29 28 26 25 25 26 28 30 31 32 32 31 31 30 29 28 28 28 29 30 31 32 33 34 33 31 30 29 29 28 27 27 25 24 23 22 22 21 18 17 16 15 15 15 15 15 16 16 16 16 16 16 15 14 13 12 11 11 11 10 10 9 7 5 4 3 1 0 2 3 5 7 8 9
40 39 36 36 37 37 35 33 33 33 31 30 29 29 28 28 28 29 30 31 31 30 30 30 30 29 29 29 30 31 31 31 33 34 33 32 31 31 30 30 29 28 28 27 26 24 23 22 20 18 17 16 16 16 16 15 15 16 16 16 16 16 15 15 14 14 13 13 13 12 12 11 9 8 6 5 3 2 2 4 6 7 9 10 11
40 39 37 37 38 38 35 34 34 34 32 31 31 31 29 29 29 29 29 30 30 30 29 29 29 30 30 31 32 32 32 32 33 33 32 32 32 32 31 31 30 30 29 28 26 24 24 22 20 18 17 17 16 17 16 15 15 16 16 16 16 16 16 15 15 15 14 14 14 13 12 11 9 7 6 5 4 4 4 5 7 9 10 11 13
37 38 38 38 38 37 35 36 35 33 31 32 32 31 30 29 29 28 29 30 30 29 28 28 29 31 32 33 34 34 33 33 33 33 32 32 32 32 32 32 31 30 29 27 26 24 24 22 20 18 18 17 17 17 16 15 16 16 16 16 17 17 16 16 15 15 15 14 14 13 12 10 9 8 7 6 6 7 7 8 9 10 11 12 14
34 36 37 38 38 37 37 39 36 31 31 33 33 31 30 30 29 28 29 29 29 29 28 29 30 31 32 33 34 34 34 34 34 33 33 33 33 32 32 32 31 30 29 27 25 24 24 22 20 19 18 18 18 18 16 16 16 16 16 17 18 17 17 16 16 15 14 14 13 12 11 10 9 8 7 8 9 10 11 11 11 12 13 14 15
32 35 37 38 37 35 37 38 34 30 32 34 33 31 29 29 29 29 29 29 29 28 28 29 30 31 31 32 34 34 35 34 34 34 33 32 32 31 30 30 30 29 28 26 25 24 23 22 20 19 19 19 19 19 17 17 17 17 17 18 18 18 18 17 16 15 15 14 13 12 10 10 9 9 9 10 12 13 14 14 14 14 14 15 17
32 35 37 38 36 35 36 36 33 31 32 33 32 31 30 30 31 31 31 30 29 28 28 29 30 30 31 32 33 34 34 34 33 33 32 31 29 29 29 29 29 28 26 25 24 24 23 22 21 20 20 20 20 19 19 18 18 18 19 19 19 19 18 17 16 16 16 16 15 13 11 11 11 10 11 13 14 16 17 17 16 16 16 17 18
32 34 36 37 38 39 38 37 34 33 33 33 32 32 32 32 32 32 32 31 29 28 28 29 30 31 31 32 32 32 32 32 32 31 30 29 28 28 28 28 27 26 25 25 24 23 22 22 21 22 21 21 21 21 20 19 19 19 20 20 20 19 18 17 17 17 17 17 16 14 13 13 13 12 14 16 17 18 19 19 19 19 19 18 19
31 32 35 37 39 39 38 38 37 35 34 33 33 33 33 33 33 34 33 32 30 30 30 30 30 30 30 30 30 31 31 31 30 30 29 28 27 27 27 27 27 26 25 25 24 23 22 22 22 22 21 21 22 22 21 20 20 21 21 20 20 19 18 19 19 18 18 18 17 16 15 16 15 15 17 19 21 22 22 21 22 22 22 21 21
30 32 36 38 38 37 37 39 38 37 36 35 34 33 34 34 34 34 34 33 32 31 30 30 29 28 28 28 28 28 28 28 28 27 27 27 27 27 27 27 26 26 26 25 25 24 24 24 24 23 22 23 25 24 23 22 23 23 23 21 21 20 20 20 20 20 20 20 19 18 18 18 17 18 20 22 24 25 24 23 24 25 24 23 24
29 35 39 40 37 36 37 39 38 38 38 38 36 35 36 36 35 34 34 33 32 31 30 29 29 29 29 28 27 27 27 26 26 25 25 25 25 26 26 26 26 26 26 26 26 26 26 26 25 24 24 25 27 27 26 25 26 26 24 23 22 22 21 21 21 21 22 21 21 21 21 20 20 21 23 25 26 27 26 26 27 28 27 26 27
28 35 38 38 37 37 38 38 38 38 40 40 39 37 37 36 35 34 33 32 32 31 30 30 30 30 29 28 28 27 26 25 25 24 24 24 24 24 25 25 25 26 26 27 27 27 26 26 26 27 27 27 28 29 29 27 27 28 26 24 24 23 23 22 22 22 23 22 21 22 23 24 24 25 25 26 28 28 29 29 30 31 31 29 29
25 32 36 37 39 39 38 37 36 36 39 41 40 38 35 34 34 33 32 31 32 32 32 31 31 30 27 26 26 26 25 25 24 24 23 23 23 24 24 24 24 24 25 26 25 25 26 26 27 28 28 29 30 31 31 30 30 29 28 27 25 24 24 23 24 25 24 23 22 24 26 27 28 28 28 28 28 29 30 30 33 35 36 34 32
22 28 36 40 41 40 38 36 35 34 37 39 39 36 33 32 32 31 31 31 32 32 32 31 30 28 26 25 25 25 25 25 24 24 23 23 22 22 22 22 22 23 23 23 23 24 24 25 26 27 27 28 30 32 33 33 32 31 30 29 27 25 26 26 26 27 26 25 25 27 28 29 30 29 29 29 29 31 31 32 35 38 41 41 38
25 28 37 42 42 42 40 38 35 35 36 37 37 35 33 32 32 31 31 31 32 32 33 32 30 29 28 28 27 27 26 26 26 25 24 23 22 22 21 21 21 21 20 20 20 21 22 23 25 25 25 26 28 31 34 35 34 33 32 30 28 27 28 28 28 28 28 28 29 30 30 31 31 31 30 30 31 32 33 34 36 40 45 47 44
28 31 39 44 44 43 42 39 37 37 36 37 36 35 34 34 34 34 34 34 34 36 36 35 34 33 32 30 30 30 29 29 28 27 26 26 25 24 23 22 22 21 19 19 19 19 20 21 22 23 23 24 26 29 33 35 36 36 34 31 29 29 30 30 29 29 29 31 32 32 32 32 33 32 32 32 33 33 35 36 38 40 46 51 50
31 35 42 45 45 45 44 41 39 39 37 36 35 34 36 37 38 38 39 39 39 39 40 39 38 36 34 32 32 31 30 30 30 30 29 29 28 27 26 26 25 24 22 21 20 20 21 21 22 22 23 24 26 28 30 32 35 36 35 32 31 31 31 32 31 30 31 32 33 33 34 34 35 34 34 34 34 35 36 38 39 40 44 50 53
33 37 44 47 46 46 45 43 41 40 37 34 33 34 36 38 39 39 40 42 43 42 41 42 41 39 37 36 34 33 32 31 31 31 30 31 31 31 30 29 29 28 26 25 24 24 23 23 23 23 23 24 26 27 28 29 31 33 33 32 32 32 33 34 33 31 32 33 34 34 36 36 36 36 36 35 35 36 38 39 40 41 43 47 53
36 39 44 48 48 48 47 45 42 39 35 33 34 35 36 36 36 36 37 41 46 47 46 46 45 43 41 39 38 36 35 34 34 33 33 33 33 33 32 32 32 31 31 30 30 29 26 25 25 26 26 26 26 26 27 28 29 31 31 32 33 34 35 36 35 34 34 35 36 36 37 38 38 38 38 37 37 38 39 40 41 43 44 47 51
39 41 45 48 48 47 46 44 40 36 33 32 32 33 33 33 34 33 32 35 43 49 50 51 50 49 46 43 41 39 39 38 38 38 37 36 35 35 35 35 35 35 34 34 34 33 31 29 28 28 29 28 27 25 25 27 28 29 31 33 35 36 37 38 37 36 36 37 38 38 39 39 39 39 39 39 39 40 40 41 42 44 46 48 50
41 43 46 47 46 43 41 39 37 34 32 31 31 31 33 34 33 33 33 33 36 41 44 46 47 48 47 46 44 43 42 41 41 41 40 39 38 38 38 38 38 38 38 37 37 37 35 34 32 30 30 29 28 27 26 26 26 26 28 30 33 35 37 37 37 37 37 37 38 38 39 39 40 40 40 40 41 41 41 42 44 46 48 49 51
44 44 46 46 45 43 41 38 36 34 32 32 32 33 35 36 35 36 37 37 37 38 39 39 40 41 42 44 45 45 45 44 43 43 43 42 42 41 41 41 41 41 41 41 40 39 38 37 35 33 31 31 30 29 28 27 27 26 26 28 29 32 34 35 36 36 37 37 38 38 38 39 39 40 40 41 42 42 43 44 46 48 50 51 52
46 46 46 46 45 44 42 39 37 35 33 33 34 35 37 38 37 38 39 39 39 40 41 41 41 41 41 42 43 44 45 45 45 45 45 45 45 45 45 45 45 45 45 45 44 42 41 40 38 36 34 33 33 32 31 30 29 29 29 29 29 30 32 33 34 35 36 37 38 38 39 39 40 40 41 42 43 44 44 46 48 50 51 53 53
48 47 47 46 45 44 42 40 38 37 35 34 35 37 37 37 37 38 38 39 40 40 41 42 44 44 45 45 45 46 46 46 47 47 48 48 48 48 49 49 48 48 48 48 47 46 45 44 42 40 38 36 35 35 34 33 32 32 32 32 32 32 33 33 34 35 36 38 39 39 40 41 41 42 43 43 44 45 47 49 50 51 52 54 55
Wind_Direction
211 216 212 207 207 204 199 195 192 189 186 187 189 187 184 186 189 187 180 176 174 173 171 169 167 163 161 163 162 160 157 155 153 149 144 141 141 137 131 128 129 132 134 135 135 130 123 118 115 114 110 107 101 96 94 94 94 93 91 87 85 84 84 85 88 94 97 95 91 88 88 90 95 100 101 99 97 95 93 90 86 80 73 69 69
208 218 216 210 209 204 199 195 193 190 186 185 189 190 186 184 188 189 182 178 177 176 174 173 172 169 169 169 165 161 160 159 157 152 148 145 145 142 137 136 137 140 143 145 145 138 131 125 123 123 121 117 110 103 100 99 96 92 89 86 83 81 81 81 83 88 94 97 97 97 97 98 99 99 99 99 99 99 97 91 83 74 65 61 65
204 207 206 202 202 197 193 192 192 192 188 186 188 190 187 184 186 188 184 181 180 179 178 177 177 174 172 170 166 163 161 159 154 149 148 147 148 147 144 143 145 147 150 152 151 145 137 132 129 128 128 122 114 107 103 102 99 95 91 87 82 79 77 77 77 80 86 92 96 99 100 100 99 98 99 103 106 107 102 93 82 71 63 63 68
202 198 195 188 191 187 181 186 192 193 191 190 189 187 187 186 185 186 187 184 182 182 183 181 180 175 171 169 166 162 157 153 149 148 149 150 151 153 152 152 153 153 155 157 157 152 146 140 132 128 125 121 116 111 105 102 101 99 96 90 84 80 77 76 74 75 79 84 89 94 97 98 99 101 103 106 108 107 103 95 82 70 67 74 82
195 189 189 180 182 181 177 181 188 192 193 194 191 187 189 189 186 186 188 186 184 186 187 184 180 175 168 165 161 154 148 147 150 154 156 157 159 159 158 159 160 159 160 161 160 158 154 145 134 125 120 118 116 113 109 106 104 103 102 97 91 85 80 76 74 73 74 78 83 88 92 95 98 100 101 101 100 99 97 91 83 77 80 89 94
196 190 189 179 174 174 175 178 182 189 194 196 194 190 190 192 189 186 188 188 187 188 188 185 181 175 169 166 161 157 155 157 163 169 169 167 164 163 163 164 164 164 164 163 162 162 159 150 136 126 119 116 115 113 110 109 107 105 104 102 99 93 86 80 76 74 73 74 77 81 85 89 92 95 97 99 100 99 95 89 87 89 92 93 92
201 191 188 183 180 178 176 177 181 187 193 196 197 194 191 191 191 189 187 189 190 188 187 186 181 175 172 171 169 167 169 171 174 176 175 169 166 166 167 168 168 167 165 163 162 163 163 156 143 133 126 119 114 110 109 108 107 105 104 103 102 97 92 85 80 79 78 75 75 77 82 85 88 93 97 100 100 97 94 92 92 93 92 90 88
203 192 185 183 191 193 182 181 188 192 192 192 196 198 194 190 192 193 189 188 189 189 187 187 183 177 176 176 176 179 182 180 177 176 173 169 168 169 169 171 171 170 168 165 163 165 165 161 153 142 133 124 115 110 106 105 104 104 103 102 101 99 96 90 83 80 81 82 80 78 81 85 88 90 93 94 95 94 94 94 94 91 89 87 80
205 199 189 182 189 201 194 189 193 195 193 190 193 198 197 192 192 195 192 188 187 187 187 187 184 180 182 183 184 188 190 186 179 175 174 173 171 169 169 171 172 171 171 169 167 167 164 161 157 149 138 127 115 107 103 100 98 98 99 100 99 98 96 93 87 81 79 83 86 84 82 83 85 87 87 87 90 94 96 94 91 87 82 77 70
202 204 198 188 189 201 204 196 192 193 193 192 193 195 197 196 194 193 192 189 186 186 187 188 187 186 187 189 192 194 190 185 181 177 179 179 175 172 170 170 169 167 166 166 167 166 164 162 158 154 143 128 113 103 98 95 94 92 93 94 94 93 91 90 90 87 82 82 86 88 86 83 82 83 84 85 86 88 90 88 84 79 71 64 59
202 207 207 199 196 200 205 200 192 192 193 194 193 194 196 198 196 194 192 188 186 185 187 189 189 191 193 195 197 195 187 184 183 182 184 182 179 178 173 171 168 162 159 158 159 160 162 161 156 150 137 121 107 95 90 89 90 90 89 90 92 91 89 87 86 86 86 84 85 87 86 84 80 78 80 84 85 82 78 77 75 72 66 59 53
204 208 211 208 203 197 200 205 201 196 193 193 194 194 196 197 198 198 193 187 184 184 186 189 191 194 198 199 197 190 184 187 188 187 188 186 183 181 177 174 169 163 160 157 155 155 155 152 144 133 118 108 100 92 87 85 85 85 85 85 88 90 91 91 89 85 82 83 84 84 84 85 81 76 75 77 85 83 74 68 69 67 63 59 52
209 211 213 212 207 196 193 201 204 201 197 195 195 194 195 196 198 200 196 190 185 184 185 187 190 195 200 200 193 186 185 191 194 195 195 192 187 183 180 178 174 172 168 162 158 155 150 143 131 121 112 104 97 91 86 82 81 80 80 79 78 80 83 85 88 87 84 79 80 79 76 79 82 80 76 71 74 81 78 71 65 63 62 63 58
215 215 217 215 209 199 190 189 199 203 202 200 196 195 195 194 195 198 198 194 188 185 184 185 189 194 199 198 191 186 189 195 199 200 201 198 192 188 185 183 181 179 174 165 158 153 147 140 132 125 117 109 102 95 89 84 81 79 78 77 76 75 74 74 73 72 72 69 66 65 63 64 73 83 83 77 71 74 84 86 82 77 71 68 66
219 218 218 216 211 203 190 182 191 201 202 202 199 195 194 194 194 194 197 196 191 187 184 183 188 193 197 196 190 189 194 198 201 203 203 201 197 195 192 189 186 180 172 165 160 155 150 144 139 134 127 120 114 106 98 91 86 81 80 79 78 77 74 71 69 66 64 61 57 53 49 46 54 77 91 90 83 77 78 90 98 100 97 85 72
215 218 217 214 209 203 192 182 185 195 200 201 199 195 194 193 194 194 194 195 193 190 186 184 187 192 194 193 190 192 197 199 202 204 203 201 200 200 198 195 189 179 171 168 166 163 158 153 150 147 146 144 138 132 123 112 99 86 79 79 81 79 75 69 65 62 59 57 54 50 44 39 38 57 93 107 107 102 96 94 98 104 104 90 72
209 214 215 212 208 202 193 184 182 188 195 200 201 198 196 194 194 194 194 195 194 191 188 187 188 190 192 191 190 194 198 199 201 203 202 200 200 202 202 198 189 179 176 174 171 169 167 165 164 166 170 173 176 182 195 209 223 249 274 298 10 61 62 58 51 48 46 44 44 45 43 41 40 52 94 125 133 128 123 118 113 105 84 66 57
204 209 211 209 205 200 193 184 180 182 189 199 203 202 200 196 195 195 194 194 195 192 190 190 189 189 190 190 191 194 197 199 199 200 200 199 201 203 201 196 189 184 182 179 175 174 177 181 183 188 192 197 204 213 226 237 246 254 261 269 276 283 296 310 330 347 357 2 11 24 30 31 33 51 117 148 153 153 149 144 147 146 69 52 46
203 203 203 204 202 198 192 184 179 181 188 199 204 204 202 200 198 197 195 194 196 194 193 192 190 189 189 189 191 194 197 198 198 198 197 198 202 204 201 195 190 187 186 185 183 185 190 196 201 208 212 217 225 230 234 239 244 248 251 257 263 268 273 275 281 288 292 298 307 327 355 8 10 16 148 166 165 166 173 178 182 186 81 49 42
208 202 197 199 199 195 190 186 182 183 190 200 206 206 205 205 202 200 199 199 199 198 196 194 192 190 190 189 191 194 197 198 197 196 195 198 202 203 201 196 192 190 190 190 191 195 202 209 215 223 229 232 233 234 236 236 236 239 242 245 250 254 254 255 260 265 268 275 281 294 321 337 333 321 232 191 182 174 177 187 194 190 98 64 53
207 202 195 195 195 190 187 186 186 188 193 199 205 206 207 208 206 204 203 202 203 204 202 199 195 193 191 190 191 195 198 199 198 196 195 199 202 203 201 197 193 193 194 197 200 204 212 220 227 235 239 238 235 233 233 235 236 235 235 237 241 245 245 241 242 248 253 259 267 283 305 311 307 305 252 192 184 181 182 188 195 186 97 78 66
204 199 195 194 193 188 186 188 190 193 197 200 204 206 206 208 208 208 206 204 204 206 206 204 200 196 193 191 193 196 198 199 198 196 196 199 202 203 202 198 195 197 199 203 207 212 219 227 234 239 241 241 240 239 236 236 236 235 234 234 235 239 241 241 240 243 245 246 254 272 287 288 287 287 246 179 172 177 183 187 195 200 154 85 57
208 206 202 199 196 190 188 190 192 195 198 202 205 206 205 207 209 209 207 206 206 207 207 207 203 200 197 195 195 197 198 199 199 197 198 200 202 204 203 199 198 200 203 207 212 217 222 227 232 237 239 241 243 244 244 241 239 237 235 232 232 233 236 239 243 247 246 243 249 260 262 261 257 234 203 176 168 174 179 182 188 198 204 192 31
206 211 211 208 205 200 195 192 193 195 198 202 205 205 204 206 208 208 207 207 208 208 208 207 205 204 202 200 199 198 198 199 199 198 198 200 202 204 202 201 202 203 205 210 214 218 220 222 228 233 236 240 243 246 248 248 244 239 234 231 231 231 232 236 241 245 247 248 249 242 232 235 236 215 192 178 171 173 174 174 179 194 230 3 31
199 205 210 212 212 210 205 200 198 198 199 200 203 205 205 206 207 208 208 207 207 208 208 207 207 207 206 204 203 201 200 199 198 198 198 200 203 203 202 202 203 204 207 212 215 218 218 220 225 232 236 240 245 249 251 251 247 240 233 229 228 230 232 234 237 241 243 246 243 229 216 217 221 210 192 177 169 165 160 155 150 144 129 70 48
201 202 207 212 213 213 212 209 207 205 203 200 200 204 206 206 207 208 209 208 206 206 206 206 208 209 208 208 206 204 203 202 199 198 198 200 202 202 202 203 204 204 208 211 215 218 219 221 227 233 238 242 246 250 251 249 245 240 234 229 227 229 232 234 236 237 235 231 227 218 214 212 212 209 193 171 160 153 144 136 126 117 100 58 32
203 204 205 208 210 211 212 212 214 213 209 203 199 202 206 208 208 209 210 210 206 204 204 205 207 207 207 207 207 206 206 204 201 198 199 200 201 201 201 203 203 204 207 210 214 217 219 224 229 233 238 243 247 250 250 248 244 241 237 233 231 230 230 233 234 230 222 217 211 209 209 206 205 204 187 164 158 151 140 125 88 44 18 11 3
202 204 204 203 205 208 208 210 214 214 211 205 200 200 203 207 209 210 210 209 207 205 203 204 205 205 205 205 205 206 207 204 201 199 199 200 200 201 202 202 203 204 207 211 214 217 221 226 231 234 239 244 247 248 249 247 245 242 239 237 235 232 230 230 227 220 212 205 200 200 201 197 194 190 182 175 181 189 262 336 349 354 357 356 353
203 201 199 200 202 205 205 207 212 214 210 205 201 199 202 206 209 209 208 207 206 204 203 204 204 204 204 205 205 205 205 204 201 200 201 201 201 202 203 203 204 205 208 212 215 219 223 228 231 234 238 243 246 247 247 246 245 244 240 238 236 234 230 225 217 210 204 196 193 195 194 192 189 188 190 200 216 242 285 315 327 340 348 347 345
206 199 196 197 201 205 205 207 212 214 210 206 202 200 202 208 211 209 207 206 204 203 203 204 204 205 206 206 205 204 203 202 201 201 202 202 202 204 204 204 206 207 209 213 218 221 225 228 231 234 236 240 243 247 247 245 243 242 240 238 235 231 227 219 210 204 199 194 193 195 196 194 193 198 209 225 245 265 285 299 312 327 337 338 338
207 200 195 195 199 202 204 209 215 216 211 206 202 201 203 209 211 208 206 205 203 202 202 203 204 205 207 207 205 202 200 199 200 202 204 205 205 205 205 206 207 208 211 215 219 222 226 228 231 234 237 239 242 246 247 244 241 240 238 234 230 227 222 215 209 205 202 199 198 201 204 202 204 214 228 247 266 277 286 293 304 317 326 329 328
209 203 198 196 196 198 204 212 218 217 209 203 201 201 205 209 210 208 205 204 203 201 200 201 203 204 206 206 204 201 199 199 200 203 206 207 207 206 206 207 207 209 213 216 219 222 226 229 231 234 237 239 242 246 247 245 242 240 236 232 228 225 220 215 213 211 211 211 209 209 212 214 219 229 244 263 274 282 287 293 300 308 315 320 318
212 209 204 197 192 197 207 215 219 215 207 203 202 203 205 208 209 207 205 203 202 200 200 201 203 203 203 203 202 200 199 200 203 206 210 210 210 209 208 208 209 212 215 217 219 222 224 227 231 234 236 239 242 245 245 243 241 239 237 234 229 224 221 219 220 219 220 223 222 220 222 227 234 244 258 268 274 280 284 288 292 297 304 308 309
210 211 208 199 196 204 211 213 212 208 203 202 202 201 202 204 206 206 204 202 200 199 200 202 202 202 201 201 201 200 202 204 207 210 213 214 213 212 211 211 212 215 217 218 220 222 223 225 229 232 235 239 243 244 243 240 238 237 237 235 231 227 227 227 227 225 227 230 230 227 228 234 243 252 261 266 271 275 280 284 289 293 295 299 304
204 207 205 201 203 209 210 207 205 202 200 201 200 199 200 202 203 204 203 200 199 198 199 201 201 201 201 202 202 203 205 208 211 212 214 214 214 212 212 213 215 217 218 220 221 222 223 225 228 232 235 239 243 244 243 240 237 236 236 235 232 231 233 234 233 233 234 236 234 231 232 238 246 255 262 267 271 274 278 283 287 289 290 293 300
197 200 196 194 199 204 203 203 202 200 199 200 200 200 201 200 201 203 202 200 199 199 199 201 201 200 201 202 203 205 207 209 211 211 211 211 210 210 211 213 216 218 219 221 223 225 226 229 231 234 237 240 244 245 243 240 238 237 236 234 232 233 236 238 239 240 241 241 239 236 236 241 247 255 262 267 271 274 278 283 286 288 291 295 299
191 190 187 188 195 199 201 203 203 200 201 202 202 202 201 200 200 202 203 202 202 202 202 202 201 199 200 201 202 204 206 207 208 208 208 208 208 209 212 215 217 220 222 224 226 228 230 232 235 237 238 241 244 245 243 240 239 239 237 233 232 234 237 239 240 242 243 243 242 242 243 245 249 256 262 267 272 275 279 283 287 289 292 296 298
190 188 188 192 195 197 202 206 204 203 203 203 203 203 202 201 201 201 203 204 204 204 205 203 202 201 200 199 200 201 202 203 205 205 206 209 210 213 217 219 221 224 227 229 231 232 233 235 238 240 241 242 244 246 244 242 241 242 240 236 235 237 238 238 240 242 244 244 245 248 251 252 254 258 262 268 272 276 280 284 287 289 291 295 294
193 193 194 194 194 196 202 207 207 206 205 204 204 205 204 204 203 203 205 205 203 204 204 201 201 202 202 200 200 200 200 201 203 205 207 210 213 216 219 222 225 228 231 233 234 235 235 236 238 241 243 243 245 248 248 246 245 245 243 239 238 241 242 242 243 244 245 245 247 252 255 256 257 259 262 267 271 276 280 285 288 290 291 293 294
196 198 197 193 192 197 204 209 211 209 206 206 207 207 207 207 205 204 204 203 201 201 200 198 199 200 200 198 197 197 198 200 201 204 206 209 213 217 220 223 226 229 232 234 235 236 237 237 238 241 243 243 245 247 249 248 247 247 246 243 242 244 246 245 245 246 247 247 249 252 255 257 259 261 263 267 272 276 281 285 288 290 290 290 292
204 201 196 192 194 199 205 210 212 209 206 207 208 208 209 209 207 204 202 201 201 199 196 195 196 195 192 191 192 194 197 200 203 205 207 209 213 218 222 223 225 228 231 234 235 235 237 239 240 241 242 243 244 246 248 250 250 250 250 248 247 249 249 248 248 248 247 247 250 252 255 257 260 262 265 269 273 277 281 285 289 291 289 286 286
211 205 196 192 196 202 207 209 210 207 206 207 208 209 210 209 207 204 201 200 199 197 194 192 193 193 193 194 197 200 202 205 208 210 212 215 217 221 224 225 226 229 231 236 239 239 240 242 244 245 245 245 246 246 248 250 251 252 252 252 252 253 253 254 254 251 249 249 250 251 254 257 260 263 266 269 273 278 283 287 290 291 290 288 289
210 204 196 194 198 204 209 210 210 208 207 205 206 209 210 211 210 206 201 199 198 194 192 193 195 197 200 203 205 207 208 211 213 214 217 220 223 226 229 230 231 232 233 237 242 245 245 246 248 250 249 248 248 248 248 248 250 252 254 254 255 256 258 260 260 256 252 251 251 252 254 257 260 263 266 269 274 278 282 285 287 290 291 292 292
207 202 197 196 199 205 211 213 213 212 209 205 205 209 212 214 215 210 202 199 198 196 194 194 196 201 206 208 208 210 213 215 217 218 219 222 225 228 230 233 235 236 237 240 244 247 248 247 248 250 252 251 250 249 249 249 250 252 254 256 257 259 262 264 264 260 255 253 252 253 255 257 260 263 266 269 273 276 278 281 284 288 292 294 293
206 201 198 198 200 206 211 214 215 215 212 207 207 212 215 217 221 220 211 202 199 198 198 197 200 204 208 208 208 212 215 217 219 220 221 224 226 228 230 233 236 239 240 242 245 248 249 247 247 248 251 252 251 250 251 252 252 253 254 256 257 259 262 265 266 264 260 257 255 255 257 259 261 263 266 269 272 274 277 280 283 287 291 294 295
206 201 199 200 203 206 210 213 216 217 214 210 212 216 217 219 224 228 225 214 205 202 201 202 204 207 209 208 209 211 213 216 219 221 223 226 228 230 233 235 238 240 241 242 244 246 247 246 246 245 247 250 252 252 252 251 252 254 256 257 258 259 261 263 265 265 264 261 259 258 259 261 262 264 266 268 271 274 277 280 283 286 290 293 296
205 201 200 202 205 208 210 213 214 215 213 212 214 216 217 218 219 223 228 224 215 209 207 208 209 210 210 210 211 211 212 216 219 220 222 225 227 230 234 237 239 241 243 243 244 245 246 245 245 245 245 246 249 253 254 254 254 255 256 257 258 258 259 261 263 263 262 261 260 260 260 262 263 264 265 267 270 274 277 280 284 286 289 293 296
204 202 201 204 207 209 210 211 212 212 213 214 216 216 215 215 214 215 219 223 222 218 217 217 218 218 215 212 211 210 212 216 220 222 224 225 226 230 233 236 239 241 243 245 245 246 246 246 246 246 246 246 248 250 254 257 258 258 256 255 256 256 257 259 261 261 261 260 260 260 260 261 262 263 265 268 271 274 277 281 284 286 289 292 295
204 203 202 205 209 210 210 211 212 214 215 216 218 217 215 214 216 217 217 219 222 223 223 223 223 223 220 216 214 213 215 217 220 223 226 227 227 229 232 235 238 241 243 245 247 248 248 248 248 248 248 248 248 248 249 252 255 257 257 256 255 255 256 258 259 260 260 260 260 260 260 261 262 263 266 268 271 275 278 280 283 286 288 291 294
204 204 203 205 208 210 212 214 215 216 218 218 218 217 216 217 218 219 219 220 222 224 225 225 225 225 224 223 221 221 221 222 223 225 228 230 231 232 232 234 236 239 240 242 244 246 248 249 249 249 249 248 248 248 249 249 250 252 254 256 257 258 258 259 259 260 260 260 261 261 262 262 263 265 267 270 272 275 278 280 282 285 288 290 292
203 204 204 205 208 210 212 214 215 216 218 219 218 217 217 218 218 219 220 221 222 223 225 226 227 228 228 227 227 227 227 227 227 228 230 232 234 235 235 236 238 240 242 244 245 246 248 249 250 249 249 248 248 248 250 250 251 252 254 256 258 259 260 261 261 262 262 263 263 263 264 265 265 267 269 271 274 276 278 279 282 285 287 288 290
Height
5894 5894 5895 5895 5895 5895 5896 5897 5899 5900 5902 5904 5906 5908 5910 5912 5914 5915 5916 5918 5920 5922 5924 5926 5927 5928 5929 5930 5930 5931 5933 5934 5935 5936 5937 5938 5938 5939 5939 5939 5941 5942 5944 5945 5945 5946 5946 5946 5946 5947 5947 5948 5948 5948 5947 5947 5947 5947 5946 5946 5946 5946 5946 5946 5946 5945 5945 5945 5945 5945 5945 5946 5946 5946 5946 5947 5947 5948 5949 5950 5950 5950 5950 5949 5949
5894 5894 5895 5895 5895 5895 5896 5897 5898 5900 5902 5904 5906 5908 5909 5911 5913 5915 5916 5918 5920 5922 5923 5925 5926 5927 5928 5929 5930 5931 5932 5933 5934 5935 5937 5938 5938 5939 5939 5940 5941 5943 5944 5945 5946 5946 5947 5947 5947 5948 5948 5949 5949 5949 5949 5948 5948 5948 5948 5948 5948 5948 5947 5947 5947 5947 5947 5946 5947 5947 5947 5948 5948 5948 5948 5948 5948 5949 5950 5951 5951 5951 5951 5951 5951
5893 5893 5894 5895 5895 5895 5895 5897 5898 5900 5901 5903 5904 5907 5909 5911 5912 5914 5916 5918 5919 5921 5923 5924 5925 5926 5928 5929 5930 5931 5932 5933 5934 5936 5938 5938 5939 5939 5939 5940 5942 5943 5944 5945 5946 5947 5947 5948 5948 5949 5949 5950 5950 5950 5950 5949 5949 5949 5949 5949 5949 5949 5949 5949 5949 5949 5948 5948 5948 5948 5949 5949 5949 5949 5949 5949 5950 5951 5951 5952 5952 5952 5952 5952 5952
5892 5893 5894 5894 5895 5895 5895 5896 5897 5899 5901 5903 5904 5906 5909 5910 5912 5914 5916 5917 5919 5921 5922 5924 5925 5927 5928 5930 5931 5932 5933 5934 5935 5937 5938 5939 5939 5939 5940 5941 5942 5943 5944 5946 5947 5947 5948 5949 5949 5950 5950 5950 5950 5950 5950 5950 5950 5950 5950 5950 5951 5951 5951 5951 5951 5950 5950 5949 5949 5950 5950 5951 5950 5950 5951 5951 5952 5952 5952 5952 5952 5953 5953 5953 5953
5891 5891 5892 5893 5894 5894 5895 5895 5897 5899 5901 5903 5905 5906 5908 5910 5911 5913 5915 5916 5918 5920 5922 5924 5926 5928 5929 5931 5932 5934 5935 5936 5937 5938 5939 5939 5939 5940 5940 5941 5943 5944 5945 5946 5947 5948 5949 5950 5950 5950 5950 5950 5951 5951 5951 5951 5951 5951 5951 5951 5952 5952 5952 5952 5952 5952 5952 5951 5951 5951 5951 5952 5952 5952 5952 5953 5953 5953 5953 5953 5953 5953 5954 5954 5954
5890 5891 5891 5892 5893 5894 5894 5895 5896 5898 5900 5902 5904 5905 5907 5908 5910 5912 5914 5916 5917 5920 5922 5924 5926 5928 5929 5931 5932 5934 5935 5936 5937 5937 5938 5938 5939 5940 5941 5942 5943 5944 5945 5946 5947 5948 5949 5950 5950 5951 5951 5951 5951 5951 5951 5952 5952 5952 5952 5952 5953 5953 5953 5953 5953 5953 5953 5953 5953 5953 5953 5953 5953 5953 5953 5954 5954 5954 5954 5954 5954 5954 5954 5954 5954
5890 5890 5890 5891 5892 5893 5894 5894 5895 5897 5899 5901 5903 5904 5905 5907 5910 5911 5913 5915 5917 5919 5922 5924 5926 5928 5929 5930 5931 5932 5933 5934 5935 5936 5937 5938 5939 5940 5941 5942 5943 5944 5945 5946 5947 5948 5949 5950 5950 5951 5951 5951 5952 5952 5952 5952 5952 5953 5953 5953 5953 5954 5954 5954 5955 5955 5955 5954 5954 5954 5954 5954 5955 5955 5955 5955 5955 5955 5955 5955 5955 5955 5955 5955 5955
5889 5890 5890 5891 5892 5893 5893 5894 5895 5896 5897 5899 5902 5904 5905 5907 5909 5911 5912 5914 5917 5919 5922 5924 5926 5928 5929 5930 5931 5932 5932 5933 5934 5935 5937 5938 5939 5941 5942 5943 5944 5944 5945 5946 5947 5948 5949 5950 5951 5951 5951 5952 5952 5952 5952 5952 5953 5953 5953 5954 5954 5954 5955 5955 5956 5956 5956 5956 5956 5956 5956 5956 5956 5956 5956 5956 5956 5956 5956 5956 5956 5956 5955 5955 5955
5888 5889 5889 5890 5890 5892 5893 5893 5894 5895 5897 5899 5901 5903 5905 5906 5908 5910 5912 5914 5916 5918 5921 5923 5925 5926 5928 5929 5930 5931 5932 5934 5935 5936 5937 5938 5939 5941 5942 5943 5944 5945 5946 5946 5947 5948 5949 5950 5951 5951 5951 5952 5952 5952 5952 5953 5953 5953 5954 5954 5955 5955 5955 5956 5956 5957 5957 5957 5957 5957 5957 5957 5957 5957 5957 5957 5956 5956 5956 5956 5956 5956 5956 5955 5955
5886 5888 5888 5888 5889 5890 5891 5892 5893 5895 5896 5897 5899 5901 5904 5905 5907 5909 5911 5913 5915 5918 5920 5922 5924 5926 5927 5928 5929 5931 5932 5934 5936 5937 5938 5939 5940 5941 5942 5943 5944 5945 5946 5946 5947 5948 5949 5950 5950 5951 5951 5952 5952 5952 5952 5953 5953 5953 5954 5954 5955 5955 5955 5956 5956 5957 5958 5957 5957 5957 5957 5958 5958 5958 5957 5957 5957 5957 5957 5956 5956 5956 5956 5956 5955
5885 5887 5887 5888 5888 5889 5890 5892 5893 5894 5895 5896 5898 5901 5903 5905 5906 5908 5910 5912 5914 5917 5919 5921 5923 5925 5927 5928 5929 5931 5933 5934 5936 5937 5938 5939 5940 5941 5942 5943 5944 5945 5946 5946 5947 5948 5949 5949 5950 5951 5951 5952 5952 5952 5953 5953 5953 5954 5954 5954 5955 5955 5955 5956 5956 5957 5958 5958 5958 5958 5958 5958 5958 5958 5957 5957 5957 5957 5957 5957 5957 5956 5956 5956 5955
5883 5885 5886 5886 5887 5889 5890 5891 5892 5893 5894 5895 5897 5899 5901 5904 5906 5907 5909 5911 5913 5915 5918 5920 5922 5924 5926 5927 5929 5931 5933 5934 5935 5937 5938 5939 5940 5940 5942 5943 5944 5945 5945 5946 5946 5947 5948 5949 5950 5950 5951 5952 5952 5953 5953 5953 5954 5954 5954 5954 5955 5955 5956 5956 5957 5957 5958 5958 5958 5958 5958 5958 5958 5958 5957 5957 5957 5957 5957 5957 5957 5957 5956 5956 5955
5881 5883 5884 5886 5887 5888 5890 5891 5892 5892 5893 5894 5896 5898 5900 5902 5904 5906 5908 5910 5912 5914 5916 5919 5922 5923 5925 5927 5929 5931 5932 5934 5935 5936 5937 5938 5939 5940 5941 5942 5943 5944 5945 5945 5946 5947 5948 5948 5949 5950 5951 5952 5953 5953 5954 5954 5954 5954 5954 5955 5955 5955 5956 5956 5957 5957 5958 5958 5958 5958 5958 5958 5958 5958 5957 5957 5957 5957 5957 5957 5957 5957 5957 5956 5955
5879 5881 5883 5885 5886 5887 5888 5889 5891 5891 5892 5894 5895 5897 5899 5901 5903 5905 5907 5909 5911 5913 5915 5918 5920 5922 5924 5926 5928 5930 5932 5933 5934 5936 5937 5938 5939 5940 5940 5941 5942 5943 5944 5945 5946 5947 5948 5948 5949 5950 5950 5951 5953 5953 5954 5955 5955 5955 5955 5955 5955 5956 5956 5957 5957 5957 5958 5958 5958 5958 5958 5958 5957 5957 5957 5957 5957 5957 5957 5957 5957 5957 5956 5956 5955
5876 5878 5881 5884 5885 5885 5886 5888 5889 5890 5891 5893 5894 5896 5898 5900 5902 5904 5906 5908 5910 5912 5913 5916 5918 5921 5923 5925 5927 5929 5931 5932 5933 5935 5936 5938 5939 5940 5940 5941 5942 5943 5944 5945 5946 5947 5948 5948 5949 5950 5950 5951 5952 5953 5954 5955 5955 5955 5956 5956 5956 5956 5956 5957 5957 5958 5958 5958 5958 5958 5958 5957 5957 5957 5957 5957 5957 5957 5957 5957 5956 5956 5956 5955 5955
5873 5875 5879 5882 5883 5883 5884 5886 5887 5889 5890 5892 5893 5895 5897 5899 5901 5903 5905 5906 5909 5910 5912 5914 5916 5918 5921 5924 5926 5928 5929 5931 5933 5934 5936 5937 5939 5940 5940 5941 5942 5943 5943 5944 5945 5947 5948 5948 5949 5950 5950 5951 5952 5953 5954 5954 5955 5955 5956 5956 5956 5956 5957 5957 5957 5958 5958 5958 5958 5958 5958 5957 5957 5957 5957 5957 5956 5957 5957 5957 5957 5956 5955 5955 5955
5869 5872 5877 5879 5881 5882 5883 5884 5886 5887 5889 5891 5892 5894 5895 5897 5899 5901 5903 5905 5907 5909 5910 5912 5913 5916 5919 5922 5924 5926 5928 5930 5931 5933 5935 5936 5938 5939 5940 5941 5942 5943 5944 5944 5945 5946 5947 5948 5949 5950 5950 5951 5952 5952 5953 5954 5955 5955 5955 5956 5956 5956 5956 5957 5957 5957 5957 5958 5958 5958 5958 5957 5957 5957 5957 5957 5956 5956 5956 5956 5956 5956 5955 5955 5955
5866 5870 5874 5876 5878 5880 5881 5883 5885 5886 5888 5889 5891 5892 5894 5896 5897 5899 5902 5904 5905 5907 5908 5909 5911 5914 5917 5920 5922 5924 5926 5928 5930 5931 5933 5935 5937 5938 5940 5941 5942 5943 5944 5944 5945 5946 5947 5948 5949 5949 5950 5951 5951 5952 5953 5953 5954 5954 5955 5955 5955 5955 5955 5956 5956 5956 5957 5957 5957 5957 5957 5957 5957 5957 5956 5956 5956 5956 5956 5955 5955 5955 5955 5955 5955
5863 5866 5870 5873 5876 5877 5879 5881 5882 5884 5886 5888 5889 5890 5892 5894 5896 5898 5900 5901 5903 5904 5905 5907 5909 5911 5914 5917 5919 5922 5924 5926 5928 5930 5932 5934 5936 5937 5939 5940 5941 5942 5943 5944 5945 5946 5947 5948 5949 5949 5950 5950 5950 5951 5952 5952 5953 5953 5954 5954 5954 5954 5955 5955 5955 5956 5956 5956 5957 5957 5957 5957 5956 5956 5956 5955 5955 5955 5955 5955 5954 5954 5955 5955 5955
5861 5864 5867 5870 5873 5875 5877 5879 5881 5883 5884 5886 5887 5889 5891 5892 5894 5896 5898 5899 5901 5903 5904 5905 5907 5909 5911 5914 5917 5919 5921 5923 5925 5928 5930 5932 5934 5936 5938 5939 5941 5942 5943 5944 5945 5946 5947 5947 5948 5949 5949 5950 5950 5950 5951 5951 5952 5952 5953 5953 5953 5954 5954 5954 5954 5954 5955 5955 5956 5956 5956 5956 5956 5955 5955 5954 5954 5955 5955 5954 5954 5954 5955 5955 5955
5860 5862 5865 5868 5871 5873 5875 5877 5878 5880 5881 5882 5885 5887 5889 5891 5893 5895 5896 5898 5900 5902 5904 5905 5906 5908 5910 5912 5915 5917 5919 5921 5924 5926 5928 5930 5932 5934 5936 5938 5940 5941 5942 5943 5944 5945 5946 5947 5948 5948 5949 5949 5949 5950 5950 5951 5951 5951 5952 5952 5952 5952 5953 5953 5953 5953 5954 5954 5955 5955 5955 5955 5955 5954 5954 5954 5954 5954 5954 5954 5953 5954 5954 5954 5954
5859 5861 5864 5866 5868 5870 5872 5874 5875 5877 5878 5880 5883 5885 5887 5889 5891 5893 5895 5897 5899 5901 5903 5905 5906 5907 5909 5910 5912 5914 5917 5919 5922 5924 5926 5928 5931 5933 5935 5937 5938 5940 5941 5942 5943 5944 5945 5946 5947 5948 5948 5948 5949 5949 5949 5950 5950 5950 5951 5951 5951 5951 5951 5951 5952 5952 5952 5953 5954 5954 5954 5954 5954 5953 5953 5953 5953 5953 5953 5953 5953 5953 5953 5953 5953
5858 5860 5862 5864 5866 5868 5869 5871 5873 5875 5877 5879 5881 5883 5885 5887 5889 5891 5893 5896 5897 5899 5901 5902 5905 5906 5907 5908 5910 5912 5915 5917 5920 5923 5925 5927 5929 5931 5933 5935 5937 5938 5940 5941 5942 5943 5944 5945 5946 5947 5947 5947 5948 5948 5948 5948 5949 5949 5949 5950 5950 5950 5950 5950 5950 5950 5951 5952 5953 5953 5953 5953 5953 5952 5952 5952 5952 5952 5952 5953 5953 5953 5953 5953 5953
5857 5859 5861 5862 5864 5865 5866 5868 5870 5872 5874 5876 5878 5881 5883 5885 5887 5889 5891 5893 5895 5897 5898 5900 5903 5904 5906 5907 5909 5911 5913 5916 5918 5921 5923 5925 5927 5929 5931 5934 5935 5937 5938 5939 5940 5941 5942 5944 5945 5945 5946 5946 5946 5947 5947 5947 5947 5947 5948 5948 5948 5948 5948 5948 5949 5949 5949 5950 5951 5952 5952 5952 5952 5952 5951 5951 5952 5952 5952 5952 5952 5952 5952 5952 5952
5854 5856 5858 5859 5860 5862 5864 5866 5868 5870 5872 5874 5876 5879 5881 5883 5885 5887 5889 5890 5892 5894 5896 5899 5901 5902 5904 5906 5908 5909 5911 5914 5916 5919 5921 5923 5925 5927 5930 5931 5933 5935 5936 5937 5939 5940 5941 5942 5943 5943 5944 5944 5945 5945 5946 5946 5946 5946 5946 5947 5947 5947 5947 5947 5947 5948 5948 5949 5949 5950 5950 5950 5950 5950 5951 5951 5951 5951 5952 5952 5952 5952 5952 5951 5951
5850 5852 5855 5856 5858 5861 5863 5865 5867 5868 5870 5872 5874 5876 5879 5881 5882 5884 5886 5887 5889 5891 5894 5896 5898 5900 5903 5905 5906 5908 5910 5912 5914 5916 5918 5920 5923 5925 5928 5930 5931 5933 5934 5936 5937 5938 5939 5940 5940 5941 5942 5942 5943 5944 5944 5945 5945 5945 5945 5945 5945 5945 5945 5946 5946 5946 5947 5947 5948 5948 5948 5948 5949 5949 5950 5950 5951 5951 5951 5952 5952 5952 5951 5951 5951
5845 5848 5850 5853 5855 5858 5861 5864 5865 5867 5868 5870 5872 5874 5876 5878 5880 5882 5883 5885 5887 5888 5891 5894 5896 5898 5901 5903 5905 5907 5908 5910 5912 5914 5916 5918 5921 5923 5925 5927 5929 5931 5932 5934 5935 5936 5937 5938 5938 5939 5940 5940 5941 5942 5942 5943 5943 5943 5943 5943 5944 5944 5944 5944 5944 5945 5945 5946 5946 5947 5947 5947 5947 5948 5948 5949 5950 5950 5950 5951 5951 5951 5951 5950 5950
5839 5842 5845 5849 5852 5855 5858 5861 5863 5864 5866 5868 5869 5871 5874 5876 5877 5878 5880 5882 5884 5886 5889 5891 5893 5896 5899 5901 5903 5904 5906 5908 5909 5911 5913 5916 5919 5921 5923 5925 5927 5929 5931 5932 5933 5935 5935 5936 5937 5938 5938 5939 5940 5940 5940 5941 5941 5941 5942 5942 5942 5942 5942 5943 5943 5943 5944 5945 5945 5945 5945 5946 5946 5947 5947 5948 5948 5948 5949 5949 5949 5949 5949 5949 5948
5833 5837 5841 5845 5849 5851 5855 5858 5860 5862 5864 5865 5867 5868 5871 5873 5874 5876 5878 5880 5882 5885 5887 5889 5892 5894 5897 5898 5900 5901 5903 5905 5907 5909 5912 5914 5917 5918 5920 5922 5925 5927 5928 5930 5931 5933 5934 5935 5936 5936 5937 5937 5938 5938 5938 5939 5939 5939 5940 5940 5940 5940 5941 5941 5942 5942 5943 5943 5944 5944 5944 5945 5945 5946 5946 5946 5947 5947 5947 5948 5947 5947 5947 5947 5947
5830 5833 5837 5842 5846 5849 5852 5855 5857 5859 5861 5863 5864 5866 5869 5871 5872 5874 5876 5878 5880 5883 5885 5887 5890 5892 5894 5895 5896 5898 5900 5903 5905 5908 5910 5912 5914 5916 5918 5920 5922 5924 5926 5927 5929 5931 5932 5933 5934 5935 5936 5936 5936 5936 5936 5937 5937 5938 5938 5938 5939 5939 5939 5940 5940 5941 5942 5942 5942 5943 5943 5944 5944 5945 5945 5945 5945 5946 5946 5946 5946 5946 5946 5946 5945
5827 5830 5834 5838 5842 5846 5850 5852 5854 5857 5859 5861 5863 5865 5867 5868 5870 5872 5874 5876 5878 5880 5883 5885 5887 5889 5890 5892 5894 5896 5898 5901 5903 5906 5908 5910 5912 5914 5916 5918 5920 5922 5923 5925 5927 5929 5930 5932 5933 5934 5934 5935 5935 5934 5934 5935 5935 5936 5936 5937 5937 5937 5938 5939 5939 5940 5941 5941 5941 5942 5942 5943 5943 5944 5944 5944 5944 5944 5944 5945 5945 5945 5945 5945 5944
5825 5828 5831 5835 5839 5843 5847 5849 5852 5855 5857 5859 5861 5862 5864 5866 5869 5871 5873 5874 5876 5878 5880 5882 5884 5885 5887 5890 5892 5894 5896 5899 5901 5903 5905 5907 5909 5912 5914 5916 5918 5920 5921 5923 5925 5927 5928 5930 5931 5932 5933 5933 5933 5933 5933 5933 5934 5934 5935 5935 5935 5936 5937 5938 5939 5939 5940 5940 5941 5941 5941 5942 5942 5942 5942 5942 5942 5942 5943 5943 5943 5943 5943 5943 5943
5823 5825 5828 5832 5836 5841 5845 5847 5850 5853 5855 5857 5859 5861 5863 5865 5867 5869 5871 5873 5874 5876 5878 5879 5881 5883 5885 5888 5890 5892 5895 5897 5899 5901 5903 5905 5908 5910 5913 5915 5916 5918 5920 5922 5924 5925 5926 5928 5929 5931 5931 5932 5932 5932 5932 5932 5932 5933 5933 5933 5934 5935 5936 5937 5938 5939 5939 5940 5940 5940 5940 5940 5940 5941 5941 5941 5940 5940 5940 5941 5941 5942 5942 5942 5941
5819 5822 5825 5830 5835 5839 5842 5845 5849 5851 5853 5855 5856 5858 5860 5862 5864 5866 5869 5871 5872 5874 5876 5877 5879 5881 5884 5886 5888 5891 5893 5895 5897 5899 5901 5904 5907 5909 5911 5913 5914 5916 5919 5921 5922 5923 5925 5926 5927 5928 5929 5930 5930 5930 5931 5931 5931 5931 5931 5932 5933 5934 5935 5937 5937 5938 5938 5939 5939 5939 5939 5939 5939 5939 5939 5939 5938 5938 5938 5938 5939 5939 5940 5940 5939
5816 5819 5823 5828 5833 5836 5839 5843 5846 5848 5850 5851 5853 5855 5856 5858 5861 5864 5866 5869 5870 5872 5873 5875 5877 5879 5882 5884 5887 5889 5891 5893 5895 5898 5900 5903 5905 5907 5909 5911 5913 5915 5917 5919 5920 5921 5923 5924 5925 5926 5927 5928 5928 5928 5929 5929 5929 5929 5930 5931 5932 5933 5935 5935 5936 5937 5937 5937 5937 5937 5938 5937 5937 5938 5937 5936 5936 5935 5935 5936 5936 5937 5938 5938 5938
5815 5818 5822 5826 5830 5833 5837 5841 5843 5845 5847 5849 5851 5852 5854 5856 5859 5861 5864 5866 5868 5870 5871 5872 5875 5877 5880 5882 5885 5887 5889 5891 5893 5896 5898 5901 5903 5905 5907 5909 5911 5913 5915 5916 5918 5919 5921 5922 5922 5923 5925 5926 5926 5926 5926 5927 5927 5927 5928 5930 5931 5932 5933 5934 5934 5935 5935 5936 5936 5936 5936 5936 5936 5936 5935 5934 5933 5933 5933 5934 5933 5933 5934 5935 5935
5813 5816 5820 5824 5828 5832 5835 5837 5840 5843 5845 5847 5848 5850 5852 5854 5856 5859 5861 5864 5866 5868 5870 5872 5874 5876 5878 5881 5883 5885 5887 5890 5892 5895 5897 5899 5901 5903 5905 5907 5909 5911 5913 5914 5916 5917 5918 5919 5920 5921 5923 5923 5923 5923 5924 5924 5924 5925 5926 5928 5929 5930 5931 5932 5932 5933 5933 5934 5934 5934 5934 5934 5934 5933 5932 5931 5930 5930 5931 5931 5930 5930 5931 5932 5931
5812 5814 5818 5821 5825 5829 5832 5834 5837 5840 5842 5844 5846 5848 5849 5851 5854 5857 5859 5862 5865 5867 5869 5871 5873 5875 5877 5879 5881 5883 5886 5888 5891 5893 5895 5897 5899 5901 5903 5905 5907 5909 5910 5912 5913 5914 5916 5917 5918 5919 5920 5920 5920 5920 5921 5922 5922 5923 5924 5926 5927 5928 5929 5930 5930 5930 5931 5932 5932 5932 5931 5932 5932 5931 5930 5929 5928 5927 5928 5928 5927 5926 5927 5929 5928
5811 5813 5816 5820 5824 5827 5829 5831 5834 5837 5839 5841 5844 5845 5847 5850 5853 5855 5858 5861 5863 5865 5867 5870 5872 5873 5875 5878 5880 5882 5884 5887 5889 5891 5893 5895 5897 5899 5901 5903 5905 5906 5908 5909 5910 5912 5913 5914 5915 5916 5917 5918 5918 5918 5919 5919 5920 5920 5922 5923 5924 5926 5927 5928 5928 5928 5929 5930 5930 5930 5929 5929 5929 5928 5928 5927 5926 5925 5925 5924 5923 5922 5923 5924 5924
5810 5813 5815 5818 5821 5824 5826 5828 5831 5834 5837 5839 5841 5843 5846 5849 5851 5854 5857 5859 5861 5863 5865 5868 5870 5872 5874 5876 5879 5881 5883 5885 5887 5889 5891 5893 5895 5897 5899 5901 5902 5904 5905 5906 5908 5909 5911 5912 5912 5913 5914 5915 5915 5915 5915 5916 5917 5917 5918 5920 5922 5923 5925 5925 5926 5926 5927 5927 5928 5927 5927 5926 5926 5926 5925 5924 5923 5922 5922 5921 5919 5917 5917 5919 5919
5809 5812 5814 5817 5820 5821 5824 5826 5829 5832 5835 5837 5839 5842 5845 5848 5850 5853 5855 5858 5860 5862 5864 5866 5869 5871 5874 5876 5878 5880 5882 5884 5886 5888 5890 5892 5893 5895 5897 5899 5900 5901 5903 5904 5905 5907 5908 5908 5909 5910 5911 5912 5913 5913 5912 5913 5914 5914 5915 5917 5919 5921 5922 5922 5923 5924 5924 5925 5925 5924 5924 5923 5923 5923 5922 5921 5921 5919 5919 5918 5915 5912 5910 5910 5914
5807 5810 5812 5815 5818 5819 5821 5824 5827 5829 5832 5835 5837 5840 5843 5846 5848 5851 5854 5857 5859 5861 5863 5866 5868 5870 5872 5874 5876 5878 5880 5882 5884 5886 5888 5890 5892 5893 5895 5896 5898 5899 5900 5902 5903 5904 5905 5905 5906 5907 5908 5909 5910 5910 5909 5910 5910 5911 5912 5913 5916 5918 5918 5919 5920 5921 5922 5922 5922 5921 5921 5920 5920 5920 5919 5918 5917 5916 5915 5914 5912 5908 5903 5900 5905
5804 5807 5810 5813 5816 5817 5819 5822 5824 5827 5829 5832 5836 5839 5841 5844 5846 5849 5852 5854 5856 5858 5861 5863 5865 5867 5869 5871 5873 5875 5877 5879 5882 5884 5886 5888 5890 5891 5893 5894 5896 5897 5898 5899 5900 5901 5902 5903 5903 5904 5905 5906 5906 5906 5906 5907 5907 5908 5909 5911 5913 5914 5915 5916 5917 5919 5919 5919 5918 5918 5918 5917 5917 5917 5916 5915 5914 5913 5912 5911 5909 5906 5899 5893 5895
5801 5804 5807 5810 5813 5815 5817 5820 5822 5825 5827 5831 5834 5837 5839 5841 5843 5844 5847 5851 5853 5855 5857 5859 5862 5864 5867 5869 5871 5872 5874 5877 5879 5881 5883 5885 5887 5888 5890 5892 5893 5895 5896 5897 5898 5899 5899 5900 5901 5901 5902 5902 5902 5903 5903 5904 5904 5905 5906 5908 5910 5911 5912 5912 5914 5915 5916 5915 5915 5915 5914 5914 5914 5913 5913 5912 5911 5910 5909 5908 5906 5904 5898 5891 5888
5798 5801 5804 5807 5811 5813 5815 5818 5820 5823 5826 5829 5832 5834 5836 5839 5840 5842 5845 5848 5850 5852 5854 5856 5858 5861 5863 5866 5868 5870 5872 5874 5876 5878 5880 5882 5883 5885 5887 5889 5890 5892 5893 5894 5895 5895 5896 5897 5898 5898 5898 5898 5898 5899 5900 5901 5901 5902 5903 5905 5906 5907 5908 5908 5910 5911 5911 5911 5911 5911 5910 5910 5910 5909 5909 5908 5908 5907 5906 5905 5903 5901 5898 5891 5884
5795 5798 5801 5804 5807 5810 5813 5815 5818 5821 5824 5828 5830 5832 5834 5837 5838 5840 5842 5844 5846 5848 5850 5852 5854 5857 5859 5862 5864 5866 5869 5871 5872 5874 5876 5878 5880 5882 5883 5885 5886 5888 5889 5890 5891 5892 5893 5893 5894 5894 5895 5895 5895 5896 5897 5898 5898 5899 5901 5902 5903 5903 5904 5904 5905 5906 5906 5906 5906 5906 5906 5906 5906 5905 5905 5904 5904 5903 5902 5901 5900 5898 5895 5891 5885
5792 5795 5798 5801 5804 5807 5810 5813 5816 5819 5822 5825 5827 5830 5832 5834 5835 5837 5838 5840 5841 5844 5846 5848 5850 5852 5855 5857 5860 5862 5865 5866 5868 5870 5872 5874 5876 5878 5879 5881 5882 5883 5884 5886 5887 5888 5889 5889 5890 5890 5891 5891 5892 5893 5894 5895 5895 5896 5898 5898 5899 5900 5900 5900 5901 5902 5901 5901 5901 5902 5902 5902 5902 5901 5901 5900 5900 5899 5898 5897 5896 5894 5891 5889 5885
5788 5791 5795 5798 5801 5804 5807 5810 5813 5816 5818 5821 5824 5826 5828 5830 5832 5833 5835 5836 5838 5840 5843 5845 5847 5849 5851 5853 5856 5858 5860 5862 5864 5866 5868 5870 5873 5874 5876 5877 5877 5879 5880 5881 5882 5883 5884 5885 5886 5887 5887 5889 5890 5891 5891 5892 5892 5893 5894 5894 5895 5895 5896 5896 5896 5897 5896 5896 5896 5897 5897 5897 5897 5897 5896 5896 5895 5895 5894 5893 5892 5890 5887 5885 5883
5784 5787 5791 5794 5797 5800 5804 5807 5809 5812 5815 5818 5820 5822 5824 5826 5828 5829 5831 5833 5835 5837 5839 5841 5843 5845 5847 5850 5852 5854 5856 5858 5860 5862 5865 5867 5868 5870 5871 5873 5873 5874 5875 5876 5877 5879 5880 5881 5882 5883 5885 5886 5887 5887 5888 5888 5889 5889 5890 5890 5891 5891 5891 5891 5892 5892 5892 5891 5892 5892 5892 5892 5892 5892 5891 5891 5891 5890 5890 5889 5887 5885 5883 5881 5879
5779 5783 5786 5790 5793 5797 5800 5803 5806 5809 5811 5814 5816 5818 5820 5822 5824 5825 5827 5830 5832 5834 5836 5838 5839 5841 5843 5846 5848 5850 5852 5854 5856 5858 5860 5862 5863 5865 5866 5868 5869 5870 5871 5872 5873 5874 5875 5876 5878 5880 5881 5882 5883 5884 5884 5885 5885 5886 5886 5886 5887 5887 5887 5887 5887 5887 5887 5887 5886 5886 5887 5887 5887 5887 5886 5886 5886 5886 5885 5884 5882 5880 5878 5877 5875
5774 5778 5782 5785 5789 5792 5796 5799 5802 5805 5807 5810 5812 5814 5816 5818 5820 5822 5824 5826 5828 5830 5832 5834 5836 5838 5840 5842 5844 5846 5848 5850 5852 5854 5855 5857 5858 5860 5861 5862 5864 5865 5866 5867 5869 5870 5871 5872 5874 5875 5876 5877 5879 5880 5880 5881 5881 5882 5882 5883 5883 5883 5883 5882 5882 5882 5882 5881 5881 5881 5881 5881 5881 5881 5881 5881 5881 5880 5879 5878 5876 5875 5873 5872 5870